Other Public Products
Issued by NWS Grand Forks, ND

Home | Current Version | Previous Version | Text Only | Print | Product List | Glossary On
Versions: 1 2 3 4 5 6 7 8 9 10 11 12 13 14 15 16 17 18 19 20 21 22 23 24 25 26 27 28 29 30 31 32 33 34 35 36 37 38 39 40 41 42 43 44 45 46 47 48 49 50
000
FPUS83 KFGF 072131
OPUFGF
PRAIRIE TO PINES WEATHER ROUNDUP
NATIONAL WEATHER SERVICE EASTERN NORTH DAKOTA/GRAND FORKS ND
300 PM CST SUN FEB 07 2016

 **SATELLITE DATA USED TO AUGMENT SKY COVER AT AUTOMATED STATIONS**
 *****  WEATHER ACROSS EASTERN NORTH DAKOTA  *****

CITY           SKY/WX    TMP DP  RH WIND       PRES   REMARKS
GRAND FORKS    LGT SNOW  20   9  62 NW38G46   29.82R BLWGSNOWWCI  -1
GRAND FORKS AF FLURRIES  19   9  63 N30G38    29.84R WCI   0
GRAND CITY NWS   N/A     18 N/A N/A N24         N/A  WCI   0
BUXTON           N/A     20  13  74 NW36        N/A  WCI   0
DEVILS LAKE    FLURRIES  19  13  77 NW28G40   29.87R WCI   1
FARGO          LGT SNOW  23  17  78 N25G38    29.82R WCI   7
WAHPETON ARPT  CLOUDY    27  21  80 N22G33    29.79R WCI  12
$$

 *****  WEATHER ACROSS CENTRAL AND WESTERN NORTH DAKOTA  *****

CITY           SKY/WX    TMP DP  RH WIND       PRES   REMARKS
JAMESTOWN      LGT SNOW  22  16  78 N33G44    29.87R WCI   3
BISMARCK       CLOUDY    34  18  52 NW31G54   30.00R WCI  20
MINOT          FLURRIES  33  16  49 NW30G46   30.01R WCI  19
MINOT AFB      FAIR      32  18  55 NW36G47   30.00R WCI  16
GARRISON         N/A     32  17  54 NW45G59   29.99R WCI  15
WILLISTON      SUNNY     37  18  46 NW30G43   30.18R
DICKINSON      MOSUNNY   35  11  36 NW37G49   30.09R WCI  21
HETTINGER      MOSUNNY   35  10  35 NW40G59   30.10R WCI  20
$$

 *****  OTHER OBSERVATIONS NORTHEAST NORTH DAKOTA  *****

CITY           SKY/WX    TMP DP  RH WIND       PRES   REMARKS
WALHALLA       FAIR      16  10  79 N29G44    29.89R WCI  -4
LANGDON        CLOUDY    16  10  79 N26       29.83R WCI  -3
CAVALIER       HVY SNOW  16  10  79 N29G41    29.87R WCI  -4
GRAFTON        MOCLDY    16  10  79 N29G44    29.86R WCI  -4
CANDO          LGT SNOW  19  16  86 N36G48    29.92R WCI  -1
FORT TOTTEN      N/A     20  15  82 NW15      29.95S WCI   6
ROLLA          FLURRIES  18  10  73 NW40G51   29.89R WCI  -4
RUGBY          MOCLDY    21  16  79 NW37G45   29.94R WCI   1
 ***** THE ABOVE OBSERVATIONS ARE NON NWS ARE NOT QUALITY
        CONTROLLED AND MAY MIS-REPORT RAIN FOR SNOW...
$$

 *****  OTHER OBSERVATIONS SOUTHEAST NORTH DAKOTA *****

CITY           SKY/WX    TMP DP  RH WIND       PRES   REMARKS
COOPERSTOWN    NOT AVBL
VALLEY CITY    FLURRIES  23  14  68 NW33G48   29.85R WCI   5
OAKES          CLOUDY    25  19  80 NW32G45   29.85R WCI   7
GWINNER        CLOUDY    28  21  74 NW24G37   29.84R WCI  14
SHEYENNE NWR     N/A     27  18  68 N21       29.95S WCI  13
BUFFALO          N/A     23  15  72 NW29G45     N/A  WCI   5
WYNDMERE         N/A     28  21  74 NW31        N/A  WCI  12
 ***** THE ABOVE OBSERVATIONS ARE NON NWS ARE NOT QUALITY
       CONTROLLED AND MAY MIS-REPORT RAIN FOR SNOW...
$$

  *****  WEATHER ACROSS NORTHERN MINNESOTA  *****

CITY           SKY/WX    TMP DP  RH WIND       PRES   REMARKS
FLAG ISLAND    LGT SNOW  18  14  86 NW25      29.64R VSB 1   WCI  -1
WARROAD        LGT SNOW  14   9  79 NW22G40   29.68R WCI  -4
ROSEAU         LGT SNOW  16  10  79 NW22      29.71R WCI  -2
HALLOCK        SNOW      12  10  92 NW23G35   29.83R VSB 1/2 WCI  -7
THF RVR FALLS  NOT AVBL
HALSTAD          N/A     20  16  84 N29         N/A  WCI   1
FOSSTON        SNOW      12  10  92 NW22G35   29.72R VSB 1/2 WCI  -7
BAUDETTE       LGT SNOW  18  13  80 NW26G35   29.61R VSB 1   WCI  -1
WASKISH        LGT SNOW  21  18  86 NW15G25   29.61R WCI   8
CROOKSTON      HVY SNOW  16  12  86 N30G43    29.82R VSB<1/4 WCI  -4
$$
  *****  WEATHER ACROSS CENTRAL AND WEST MINNESOTA  *****

CITY           SKY/WX    TMP DP  RH WIND       PRES   REMARKS
BEMIDJI        LGT SNOW  18  14  86 NW23G33   29.63R VSB 3/4 WCI   0
PARK RAPIDS    SNOW      20  14  77 NW29      29.64R VSB 1/2 WCI   1
WADENA         LGT SNOW  21  16  79 NW29G38   29.67R WCI   3
DETROIT LAKES  SNOW      19  18  93 NW28G35   29.74R VSB 1/4 WCI   1
MOORHEAD       HVY RAIN  21  18  86 N35       29.80R VSB 1   WCI   2
FERGUS FALLS   FLURRIES  25  19  80 N25G40    29.77R WCI   9
ELBOW LAKE     LGT SNOW  26  20  80 W30G39    29.74R WCI   9
MORRIS MN      LGT SNOW  30  27  86 NW33G41   29.72R WCI  14
STAPLES        CLOUDY    23  18  80 NW29G37   29.64R WCI   6
WHEATON        CLOUDY    30  25  80 NW30G39   29.80R WCI  15
$$
  *****  WEATHER ELSEWHERE ACROSS MINNESOTA  *****

CITY           SKY/WX    TMP DP  RH WIND       PRES   REMARKS
DULUTH         LGT SNOW  33  29  85 W13G23    29.45R VSB 3/4 WCI  24
INTRNTL FALLS  MIX PCPN  27  24  89 NW17      29.51R FOG     WCI  14
ELY            LGT SNOW  34  32  93 W6        29.43R
CLOQUET        LGT SNOW  30  27  86 W16G28    29.48R WCI  19
BRAINERD       SNOW      26  22  84 W18G28    29.60R VSB 1/2 WCI  13
HIBBING        LGT SNOW  28  24  85 NW18G25   29.48R VSB 1   WCI  15
ALEXANDRIA     LGT SNOW  27  20  75 NW29G40   29.70R WCI  11
SAINT CLOUD    LGT SNOW  33  28  81 NW24G35   29.61R WCI  20
MINNEAPOLIS    CLOUDY    38  28  67 W16G22    29.62R
$$

  *****  WEATHER ACROSS SOUTH DAKOTA  *****

CITY           SKY/WX    TMP DP  RH WIND       PRES   REMARKS
SIOUX FALLS    CLOUDY    34  26  72 NW25G41   29.82R WCI  21
BROOKINGS      FLURRIES  32  26  78 NW32G41   29.76R WCI  17
WATERTOWN      CLOUDY    30  23  75 NW32G43   29.78R WCI  14
HURON          MIX PCPN  32  24  72 NW37G47   29.88R WCI  16
SISSETON         N/A     30  23  75 N38G45    29.78R WCI  13
ABERDEEN       CLOUDY    31  16  54 NW36G51   29.89R WCI  15
MITCHELL       CLOUDY    34  26  72 NW30G44   29.92R WCI  20
PIERRE         PTSUNNY   39  19  44 NW32G49   29.98R
MOBRIDGE       CLOUDY    36  20  52 NW35G53   29.96R
RAPID CITY     SUNNY     39   7  26 NW45G60   30.15S
$$

  *****  SOME WEATHER IN NEARBY STATES *****

CITY           SKY/WX    TMP DP  RH WIND       PRES   REMARKS
GLASGOW MT     MOSUNNY   35  20  54 NW30G36   30.32R WCI  22
GREAT FALLS MT SUNNY     43   8  23 W12       30.43F
CHEYENNE WY    SUNNY     30  17  58 N24G40    30.23F WCI  16
SCOTTSBLUFF NE CLOUDY    34  14  43 NW32G44   30.28F WCI  20
OMAHA NE       PTSUNNY   43  23  45 W20G35    29.93F
DES MOINES IA  FAIR      44  25  47 W23G30    29.85F
DAVENPORT IA   FAIR      44  30  57 W22G33    29.79R
CHICAGO IL     PTSUNNY   42  32  67 SW12      29.72S
EAU CLAIRE WI  CLOUDY    39  25  57 W17G23    29.58R
LA CROSSE WI   FAIR      40  25  55 W22       29.65S
$$

  *****  SOME NATIONAL WEATHER *****

CITY           SKY/WX    TMP DP  RH WIND       PRES   REMARKS
LA GUARDIA NY  PTSUNNY   44  23  43 NE10      30.05F
RALEIGH NC     CLOUDY    44  20  38 N9G20     29.92F
ATLANTA GA     FAIR      55  20  25 NW12      29.99F
NEW ORLEANS LA FAIR      58  18  21 NW3       30.16F
OKLAHOMA CITY  FAIR      59  24  26 N20       30.14S
ALBUQUERQUE NM MOSUNNY   54  15  21 NW18G24   30.30F
SALT LAKE CITY MOSUNNY   39  25  57 W3        30.59F HAZE
LOS ANGELES CA SUNNY     82  17   9 W7        30.09F
BOISE ID       SUNNY     47  35  63 NW8       30.60F
SEATTLE WA     PTSUNNY   50  37  61 N9        30.56S
$$

*** WEATHER ACROSS MANITOBA...SASKATCHEWAN AND ONTARIO ***
                ***ONTARIO***

CITY           SKY/WX    TMP DP  RH WIND       PRES   REMARKS
GERALDTON      FLURRIES   5  -2  72 E13G21    29.70R WCI -12
THUNDER BAY    SNOW      23  21  93 E16       29.55R VSB 1/2 WCI  10
SIOUX LOOKOUT  LGT SNOW  14  10  85 NE9       29.59R DRFTSNOWWCI   2
TORONTO        CLOUDY    41  28  60 SE9       29.90F
BIG TROUT LK   SUNNY      0 -11  60 E7G17     29.97R WCI -13
PICKLE LAKE    LGT SNOW   5  -2  72 E14       29.72R DRFTSNOWWCI -12
DRYDEN         LGT SNOW  16  12  86 NE12      29.57R WCI   3
KENORA         LGT SNOW  18  14  86 N15G21    29.61R DRFTSNOWWCI   3
$$
                *** MANITOBA***

CITY           SKY/WX    TMP DP  RH WIND       PRES   REMARKS
BRANDON        FLURRIES  18  10  73 NW29G40   29.97R WCI  -2
DAUPHIN        CLOUDY    16   9  73 N18G25    30.01R WCI  -1
ISLAND LAKE    FLURRIES   3  -2  78 NE5       29.88  WCI  -6
PILOT MOUND      N/A     16  12  86 NW22G29     N/A  WCI  -2
THE PAS        CLOUDY    10   5  79 NW20G26   30.06R BLWGSNOWWCI  -8
THOMPSON       LGT SNOW  -4  -9  77 N5        29.99R WCI -15
WINNIPEG       LGT SNOW  10   5  79 N30G39    29.86R VSB 1   WCI -12
LYNN LAKE      FLURRIES   3   0  85 NW12      30.03R WCI -13
CHURCHILL      CLOUDY    -9 -18  64 SE9       30.19R WCI -27
GILLAM         CLOUDY    -6 -15  65 E7        30.03R WCI -20
$$
                ***SASKATCHEWAN***

CITY           SKY/WX    TMP DP  RH WIND       PRES   REMARKS
ESTEVAN        PTSUNNY   32  23  69 NW35G44   30.09  WCI  17
KINDERSLEY     MOSUNNY   32  21  64 NW15G21   30.32R WCI  22
LLOYDMINSTER   PTSUNNY   30  19  64 W16       30.26S WCI  19
PRINCE ALBERT  MOSUNNY   28  18  64 N17G28    30.17R WCI  16
REGINA         MOSUNNY   30  21  69 NW30G39   30.17R WCI  15
YORKTON        FLURRIES  21  16  79 NW26G36   30.05R WCC1F1C2F2C3F3C4F4C5F5C6F6C7F7C8F8C9F9CaFaCbFbCcFcCdFdCe!


USA.gov is the U.S. government's official web portal to all federal, state and local government web resources and services.